Temperature
21 22 22 22 22 22 22 22 22 22 22 21 21 21 22 21 20 20 20 20 20 20 19 19 18 18 18 17 17 17 17 16 16 16 16 16 16 16 16 16 16 16 16 16
22 21 22 22 21 22 22 22 22 22 21 21 21 21 22 21 21 21 21 21 20 20 19 19 18 18 18 18 17 17 17 17 16 16 16 16 16 16 16 16 16 16 16 15
21 22 21 21 21 22 22 22 22 21 21 21 21 21 22 22 21 20 20 20 21 20 20 20 19 19 18 18 18 17 17 17 17 16 16 16 16 16 16 16 16 16 16 15
21 22 21 22 22 22 21 22 21 21 21 21 21 21 22 22 21 21 20 20 20 20 20 20 19 19 19 18 18 18 17 17 17 17 16 16 16 16 16 16 16 16 16 15
21 21 21 21 22 22 21 21 21 21 21 22 22 22 22 22 22 22 21 21 20 20 20 20 19 19 19 18 18 18 17 17 17 17 17 17 16 16 16 16 16 16 16 16
21 21 21 22 21 21 21 21 21 21 22 21 22 22 22 23 23 23 22 21 21 20 20 20 19 19 19 19 18 18 18 18 17 17 17 17 17 16 16 16 16 16 16 16
21 22 22 21 21 21 21 22 21 21 21 21 22 21 22 23 23 23 23 22 21 20 20 20 19 19 19 19 19 18 18 18 18 17 17 17 17 17 16 16 16 16 16 16
21 21 22 22 22 22 22 22 21 21 21 22 22 22 23 23 22 22 22 21 21 20 20 20 19 19 19 19 19 19 18 18 18 18 17 17 17 17 16 16 16 16 16 16
22 22 22 22 22 22 22 22 22 22 22 21 22 23 23 23 23 22 22 21 21 20 20 19 19 19 19 19 19 19 19 18 18 18 17 17 17 17 17 16 16 16 16 16
23 22 22 22 22 21 22 22 22 22 21 21 22 22 23 23 23 23 22 22 21 20 20 19 19 19 19 19 19 19 19 18 18 18 17 17 17 17 17 16 16 16 16 16
23 22 22 22 22 22 21 22 22 22 22 21 21 22 23 23 23 23 22 22 21 20 20 19 19 19 19 19 19 19 19 19 18 18 18 17 17 17 17 17 16 16 16 16
22 22 22 22 22 22 22 22 22 22 22 22 22 22 23 23 22 22 22 21 20 20 19 19 19 19 19 19 19 19 19 18 18 18 17 17 17 17 17 17 16 16 16 16
22 22 22 22 22 22 22 22 22 22 22 22 21 22 23 23 22 22 21 21 20 19 19 19 19 19 19 19 19 19 18 18 18 18 18 17 17 17 17 17 16 16 16 16
21 22 22 22 22 22 22 22 22 22 22 22 22 22 23 23 22 22 21 20 20 19 19 19 18 18 19 19 19 19 18 18 18 18 18 17 17 17 17 16 16 16 16 16
21 22 22 22 22 22 22 22 22 22 22 22 22 22 22 22 22 21 20 20 19 19 19 18 18 18 18 18 18 18 18 18 18 18 18 17 17 17 17 16 16 16 16 15
21 21 21 21 22 22 21 22 22 22 22 22 22 22 23 22 21 21 21 20 19 19 18 18 18 18 18 18 18 18 18 18 18 18 18 17 17 17 16 16 16 16 16 15
21 21 21 21 22 21 21 22 22 22 22 22 22 23 22 22 21 21 20 20 19 19 18 18 18 18 18 18 18 18 18 18 18 17 17 17 17 17 16 16 16 16 15 15
21 21 21 21 21 20 23 23 22 22 22 23 23 23 22 21 20 20 20 20 19 19 18 18 18 18 18 18 18 18 17 17 17 17 17 17 17 16 16 16 16 15 15 15
20 20 20 21 21 21 22 22 22 22 22 23 23 22 21 20 20 20 19 19 19 18 18 18 18 18 18 18 18 17 17 17 17 17 17 17 16 16 16 16 15 15 15 15
19 20 20 20 20 20 22 22 21 22 22 22 22 21 21 21 22 22 19 18 18 18 18 18 18 17 17 17 17 17 17 17 17 17 16 16 16 16 16 15 15 15 15 14
19 19 20 20 20 21 22 21 21 21 22 21 21 20 20 21 21 19 18 18 18 17 17 17 17 17 17 17 17 17 17 17 16 16 16 16 16 15 15 15 15 14 14 14
20 20 20 20 20 21 20 20 21 22 21 20 20 20 19 19 18 18 17 17 17 17 17 17 17 17 17 17 17 16 16 16 16 16 16 15 15 15 15 15 14 14 14 14
20 20 21 21 21 20 19 20 19 19 20 19 19 19 18 18 18 17 17 16 16 16 16 16 16 16 16 16 16 16 16 16 16 16 15 15 15 15 15 14 14 14 13 13
19 18 19 20 20 19 18 18 18 18 18 18 18 18 18 17 17 17 16 16 16 16 16 16 16 16 16 16 16 16 16 16 15 15 15 15 14 14 14 14 14 13 13 13
19 18 19 19 20 19 18 18 17 17 17 17 17 17 17 17 17 16 16 15 15 15 15 15 15 15 15 15 15 15 15 15 15 15 14 14 14 13 13 13 13 13 12 12
18 18 18 19 19 20 19 17 17 17 17 17 17 16 16 16 16 16 15 15 15 15 15 15 15 15 15 15 15 15 15 14 14 14 14 14 13 13 13 12 12 12 12 12
Wind_Speed
3 4 4 3 3 2 2 3 3 1 2 3 4 5 6 9 10 10 10 11 11 10 10 9 9 9 8 8 8 8 7 7 5 4 3 3 2 2 2 2 3 2 2 3
4 3 2 1 2 3 4 4 3 2 2 3 3 4 5 8 11 11 11 11 11 11 11 10 10 10 10 9 8 8 8 7 6 4 4 3 2 2 2 2 2 2 2 2
3 1 2 4 4 4 4 4 3 2 1 3 3 4 6 6 8 9 10 10 11 11 12 12 12 11 10 10 10 8 8 8 7 7 4 4 3 3 3 2 2 1 1 2
1 2 4 4 3 3 2 1 3 3 3 2 3 2 4 6 8 9 11 11 12 12 12 11 12 12 12 11 10 10 9 9 8 8 7 6 4 3 3 2 2 2 2 2
2 2 3 2 1 2 1 2 3 3 4 3 4 4 3 6 8 9 10 11 12 11 11 12 12 12 11 10 9 9 9 9 9 8 8 7 5 3 3 3 3 3 2 2
2 1 1 0 2 2 4 3 3 4 4 3 3 4 3 5 8 8 9 10 11 11 11 11 11 10 9 9 9 9 10 9 9 9 9 8 6 5 4 4 3 3 2 2
3 4 3 3 4 5 5 4 3 3 3 2 2 3 4 3 5 7 8 9 10 11 10 10 10 10 10 10 10 10 10 10 10 10 9 8 7 7 6 5 4 3 3 3
4 4 5 5 5 4 5 5 3 2 1 1 3 4 2 1 3 4 6 7 9 10 10 10 10 9 9 10 10 10 11 10 10 10 9 8 8 6 5 5 4 4 3 3
3 2 3 3 3 4 3 4 3 2 2 2 2 2 2 1 2 4 5 7 8 9 9 10 10 10 9 10 10 10 10 10 10 10 9 8 8 7 6 5 5 4 3 3
3 3 3 3 4 3 4 3 3 3 2 2 2 2 1 0 2 4 6 7 7 7 8 9 9 9 9 8 9 9 10 10 9 9 8 7 7 7 6 5 5 5 5 4
5 4 4 5 5 5 5 5 4 3 3 2 1 1 1 1 1 3 6 7 7 7 7 8 8 8 8 8 8 8 9 8 8 8 8 8 7 6 6 5 5 5 4 5
4 4 5 5 2 2 5 6 6 5 3 3 3 1 2 2 1 2 4 5 6 6 7 7 8 8 8 8 8 8 9 9 8 8 8 7 7 7 6 6 6 6 5 5
4 4 4 4 5 5 5 6 7 6 4 5 5 2 2 1 2 2 3 4 5 6 7 7 7 8 8 8 8 8 8 8 7 7 7 7 7 7 7 6 6 5 5 5
3 5 6 5 3 3 6 7 8 7 6 6 6 6 2 1 1 1 2 4 4 6 6 7 7 7 7 7 7 7 7 7 7 7 7 7 7 7 7 6 5 5 5 5
4 6 6 6 6 5 6 7 9 9 8 7 6 6 5 3 3 3 3 4 5 5 6 6 7 7 7 7 7 6 6 7 7 7 7 7 7 6 6 5 5 5 5 4
3 5 5 6 6 6 7 8 9 9 9 9 8 7 5 3 3 3 4 5 6 6 6 6 6 7 7 8 7 7 7 7 7 7 7 6 6 6 6 6 5 5 5 4
4 5 6 6 6 6 9 9 9 9 8 8 9 6 3 3 3 4 4 5 6 6 6 6 7 7 7 8 8 7 7 7 7 7 6 6 6 6 6 6 5 5 5 5
7 7 5 6 7 8 3 2 6 8 9 9 8 6 5 4 3 3 4 5 5 6 6 6 6 7 7 7 7 7 7 7 7 7 6 6 6 6 5 5 5 5 5 5
9 8 6 6 8 8 6 5 6 7 8 7 8 6 5 4 4 4 3 4 5 5 5 6 6 7 7 7 7 7 7 7 7 6 6 6 6 6 6 6 5 5 4 4
7 9 8 7 8 7 4 3 4 6 8 5 5 5 4 6 6 3 2 3 3 3 4 5 6 6 6 7 7 7 6 6 6 6 6 6 6 6 6 6 5 4 4 4
8 8 11 11 10 7 2 2 5 7 3 3 5 4 5 5 2 1 2 3 3 4 4 5 6 6 6 6 7 6 6 5 5 5 5 5 6 6 5 5 4 4 4 4
9 8 10 10 10 8 3 5 6 2 2 2 3 3 4 3 2 3 2 3 4 5 5 6 6 6 5 6 6 6 5 4 4 4 5 5 5 5 4 5 4 4 4 4
8 8 6 7 6 2 4 5 3 2 2 2 2 2 3 3 3 3 3 3 4 5 5 5 6 6 5 5 5 5 4 4 4 5 5 4 5 5 4 5 4 4 4 3
7 6 8 9 8 6 5 5 4 4 3 2 2 2 3 3 4 3 3 3 4 4 5 5 6 6 5 5 5 4 4 5 5 5 5 4 5 4 4 3 3 3 3 3
7 6 8 11 9 6 6 6 5 3 3 2 2 2 3 3 4 4 3 4 4 4 4 5 5 5 5 5 5 4 4 5 5 4 4 4 4 4 3 3 2 3 2 2
9 10 10 10 8 8 8 6 6 5 5 4 3 2 2 3 4 4 3 3 3 4 4 4 5 5 5 5 4 4 4 5 5 4 4 3 3 3 3 3 2 3 1 2
Wind_Direction
170 190 187 191 219 240 204 197 192 162 158 191 205 209 197 191 198 201 199 198 198 197 194 191 190 191 191 191 191 183 181 175 169 164 165 155 141 125 99 77 74 74 68 75
171 184 191 188 188 195 204 193 179 141 148 223 224 237 220 205 208 207 206 204 203 201 198 194 195 194 198 196 198 196 191 184 179 175 171 171 158 148 116 114 95 83 82 85
181 131 166 193 179 189 213 218 202 189 180 211 250 239 212 205 211 211 217 217 211 207 203 197 196 197 198 200 199 199 196 188 185 179 173 168 163 175 168 157 129 93 100 106
144 191 179 187 186 201 219 176 188 195 226 238 235 249 216 203 207 212 216 216 212 208 207 201 198 200 201 201 199 199 195 192 186 183 187 187 193 191 184 166 147 144 142 140
164 172 185 196 186 193 133 131 180 209 236 245 229 249 227 194 213 213 212 212 209 206 205 202 201 203 202 198 197 199 193 191 189 190 191 201 203 195 179 168 160 162 145 155
186 185 267 181 111 142 147 152 170 212 235 241 232 238 241 204 219 216 207 205 202 199 198 200 198 199 197 192 194 195 192 191 191 195 198 204 203 199 190 190 181 178 161 165
173 180 168 161 151 169 203 220 214 209 211 225 185 240 247 240 238 233 217 204 196 194 192 191 189 191 191 190 192 192 193 194 195 198 202 204 205 203 202 201 194 196 182 178
199 194 194 206 225 211 214 243 259 248 236 214 198 234 248 285 251 230 212 200 190 189 189 190 189 191 190 190 191 193 195 198 196 200 202 202 200 205 204 204 199 201 197 184
208 179 154 200 226 226 213 223 266 265 256 251 217 229 255 189 186 184 182 180 182 185 187 190 190 191 192 192 193 196 195 196 196 199 200 200 200 202 201 200 200 198 195 183
225 211 186 175 189 215 260 220 211 225 232 228 221 233 226 135 172 170 175 179 179 180 182 185 187 191 192 191 193 193 196 196 194 196 197 198 201 199 197 194 194 194 190 185
229 220 192 191 219 213 194 210 225 231 251 257 236 151 59 290 233 189 182 181 180 180 181 183 185 188 188 183 182 185 188 189 189 192 193 192 194 192 190 192 191 192 190 189
221 230 225 215 197 261 234 235 229 238 232 245 261 267 75 251 232 200 182 174 176 179 179 177 178 179 180 181 182 186 186 185 186 187 187 190 187 186 189 190 192 192 188 190
185 227 227 207 197 201 224 230 232 241 244 240 243 232 99 204 171 173 181 176 173 170 169 168 172 176 178 180 183 185 185 185 182 183 186 190 190 190 192 193 192 193 193 192
231 242 250 256 280 231 223 220 222 228 240 244 241 255 261 256 214 194 194 191 176 168 167 168 171 175 176 176 179 182 184 182 180 181 187 193 195 192 192 192 192 193 195 197
230 250 251 267 277 267 254 239 222 226 241 249 257 262 271 268 256 230 199 181 175 173 171 173 175 173 174 174 175 178 180 178 178 181 188 193 193 189 188 186 188 188 191 199
222 239 247 252 244 243 255 249 236 235 239 239 250 264 268 255 248 227 205 188 182 180 178 177 178 174 175 175 177 181 180 179 177 180 185 182 184 182 183 184 185 185 187 192
220 227 244 249 241 250 251 243 232 226 226 229 240 248 228 234 243 237 219 205 194 185 181 181 183 181 178 178 179 180 179 176 178 182 181 177 179 179 183 181 182 184 186 189
232 236 245 253 248 248 256 218 230 232 238 236 242 246 233 228 230 242 227 214 204 190 183 183 183 181 179 174 175 176 176 177 180 184 182 178 178 180 179 180 185 191 192 189
230 230 237 246 251 258 250 232 216 228 241 237 232 229 218 202 197 210 202 212 212 205 194 186 183 175 170 167 172 175 177 178 181 185 187 182 180 179 178 182 189 192 192 195
208 220 230 234 247 253 241 192 219 233 234 212 220 215 205 199 215 197 162 190 191 178 176 173 169 165 163 163 169 174 175 179 186 189 190 183 181 180 182 186 187 184 189 197
199 209 223 233 244 253 262 201 202 225 236 175 206 207 202 211 248 119 124 136 139 141 141 147 153 157 159 161 167 172 172 180 186 185 181 177 179 182 182 181 181 180 182 185
224 219 222 228 238 240 179 192 217 257 65 151 186 199 205 202 159 144 131 125 126 130 137 143 148 147 149 157 165 167 171 177 174 173 174 177 176 175 173 172 177 180 180 185
232 236 236 233 245 258 204 228 271 291 224 185 180 187 180 170 161 154 145 135 135 137 141 149 150 145 144 152 164 165 165 167 166 165 169 175 172 168 170 170 171 177 185 196
227 238 239 243 245 244 237 232 249 255 249 228 205 179 175 170 162 155 149 144 139 142 143 152 154 150 149 152 159 162 162 166 162 160 161 167 169 166 168 171 176 183 189 198
235 219 234 243 246 249 238 234 233 243 251 241 214 191 191 183 175 166 159 156 152 148 150 156 158 156 159 158 158 161 163 164 164 160 159 163 163 161 161 156 158 195 197 208
230 231 236 245 244 246 246 235 231 232 236 230 218 210 200 191 183 178 174 169 163 158 159 160 160 163 165 161 160 163 167 171 169 164 161 162 163 161 162 157 131 72 120 115
Height
1529 1528 1528 1528 1528 1527 1528 1530 1532 1533 1533 1535 1535 1535 1536 1540 1542 1543 1545 1547 1549 1551 1554 1556 1558 1560 1562 1564 1565 1567 1568 1568 1569 1570 1571 1571 1572 1572 1572 1572 1571 1571 1571 1571
1528 1529 1528 1529 1529 1529 1529 1531 1532 1533 1534 1535 1535 1534 1534 1537 1539 1540 1542 1544 1547 1549 1552 1554 1557 1559 1561 1563 1564 1566 1567 1568 1569 1569 1571 1571 1572 1572 1572 1572 1572 1572 1572 1571
1527 1529 1529 1529 1529 1530 1530 1530 1531 1534 1535 1534 1535 1535 1532 1534 1537 1539 1540 1542 1544 1547 1549 1552 1554 1556 1559 1561 1562 1564 1566 1567 1568 1569 1570 1571 1572 1572 1572 1572 1572 1572 1572 1572
1528 1528 1529 1528 1528 1528 1532 1530 1531 1534 1535 1536 1536 1539 1531 1529 1532 1535 1537 1539 1541 1544 1546 1549 1552 1554 1556 1559 1561 1563 1564 1566 1567 1568 1569 1571 1571 1572 1572 1572 1572 1572 1572 1572
1529 1529 1528 1529 1529 1528 1531 1531 1531 1533 1533 1534 1533 1536 1529 1527 1529 1529 1532 1535 1538 1541 1543 1546 1549 1552 1554 1556 1559 1561 1563 1565 1566 1567 1568 1570 1571 1572 1572 1572 1572 1572 1572 1572
1528 1530 1529 1528 1529 1530 1531 1532 1532 1532 1532 1539 1533 1534 1532 1523 1524 1525 1528 1531 1534 1538 1541 1543 1546 1549 1552 1554 1556 1558 1561 1563 1564 1566 1567 1568 1570 1570 1571 1571 1572 1572 1572 1571
1529 1528 1529 1530 1530 1532 1531 1532 1538 1540 1540 1538 1530 1533 1528 1518 1520 1522 1524 1527 1531 1535 1538 1541 1544 1546 1549 1551 1554 1556 1558 1560 1562 1564 1565 1567 1568 1569 1570 1570 1571 1571 1571 1571
1529 1532 1527 1527 1527 1528 1528 1529 1537 1545 1542 1534 1530 1530 1520 1517 1520 1521 1523 1526 1529 1532 1535 1538 1541 1544 1546 1549 1551 1554 1556 1558 1560 1562 1564 1565 1566 1568 1569 1569 1570 1570 1571 1570
1524 1528 1525 1526 1526 1525 1527 1527 1525 1530 1532 1536 1528 1522 1517 1516 1517 1520 1522 1524 1527 1530 1533 1536 1539 1542 1544 1547 1549 1552 1554 1556 1558 1560 1562 1563 1565 1566 1567 1567 1568 1569 1569 1569
1519 1526 1524 1526 1527 1527 1525 1524 1527 1531 1538 1539 1531 1525 1521 1516 1516 1518 1520 1523 1526 1528 1531 1534 1537 1539 1542 1545 1547 1550 1552 1554 1555 1557 1559 1561 1563 1564 1565 1566 1566 1567 1568 1568
1520 1524 1526 1525 1524 1523 1526 1526 1525 1526 1527 1534 1536 1528 1514 1515 1515 1516 1519 1522 1524 1527 1529 1532 1535 1537 1540 1543 1545 1547 1549 1552 1553 1555 1557 1559 1560 1562 1563 1564 1565 1565 1566 1566
1520 1520 1523 1521 1520 1521 1520 1520 1522 1528 1528 1526 1528 1527 1513 1515 1515 1517 1518 1521 1523 1525 1528 1530 1532 1535 1538 1541 1543 1545 1547 1549 1551 1553 1555 1557 1558 1560 1561 1562 1563 1564 1564 1565
1521 1521 1525 1525 1525 1523 1521 1520 1519 1520 1522 1525 1529 1526 1514 1514 1515 1517 1518 1520 1522 1524 1526 1528 1531 1533 1536 1538 1541 1543 1545 1547 1549 1551 1553 1555 1556 1557 1559 1560 1561 1562 1563 1563
1522 1518 1521 1526 1520 1517 1519 1519 1519 1519 1522 1522 1521 1518 1514 1514 1514 1516 1518 1519 1521 1523 1525 1527 1529 1531 1534 1536 1539 1541 1543 1545 1547 1549 1551 1552 1554 1555 1557 1558 1559 1560 1560 1561
1520 1518 1516 1515 1515 1515 1515 1515 1516 1517 1515 1517 1515 1515 1513 1513 1514 1516 1517 1518 1520 1522 1523 1525 1527 1530 1532 1535 1537 1539 1541 1543 1545 1547 1548 1550 1552 1553 1554 1555 1556 1557 1558 1559
1519 1518 1517 1517 1515 1515 1516 1513 1513 1514 1513 1513 1513 1513 1510 1512 1513 1514 1516 1517 1518 1520 1522 1524 1526 1528 1530 1533 1535 1537 1539 1541 1543 1544 1546 1547 1549 1550 1551 1553 1554 1555 1555 1556
1517 1517 1519 1518 1514 1515 1515 1508 1508 1509 1509 1509 1511 1509 1509 1511 1512 1513 1514 1515 1516 1518 1520 1522 1524 1526 1528 1531 1533 1535 1537 1539 1541 1542 1544 1545 1546 1547 1549 1550 1551 1552 1553 1553
1516 1516 1516 1516 1516 1523 1506 1502 1503 1505 1505 1504 1505 1506 1508 1510 1511 1512 1513 1514 1515 1517 1518 1520 1522 1524 1527 1529 1531 1533 1535 1537 1538 1540 1541 1542 1544 1545 1546 1547 1548 1549 1550 1551
1515 1515 1516 1515 1516 1510 1503 1501 1502 1504 1503 1502 1503 1505 1507 1509 1510 1511 1511 1512 1513 1515 1516 1518 1520 1523 1525 1526 1529 1531 1533 1535 1536 1537 1539 1540 1541 1543 1544 1545 1546 1547 1547 1548
1513 1513 1514 1515 1517 1514 1501 1499 1501 1503 1502 1501 1502 1503 1505 1506 1505 1507 1510 1510 1511 1513 1514 1516 1518 1520 1522 1525 1527 1529 1531 1532 1533 1535 1536 1538 1539 1540 1541 1542 1543 1544 1545 1545
1509 1511 1512 1511 1510 1502 1498 1500 1502 1506 1500 1500 1501 1503 1504 1505 1505 1507 1508 1508 1509 1511 1512 1514 1516 1518 1520 1523 1525 1527 1528 1530 1531 1533 1534 1535 1536 1537 1539 1540 1541 1541 1542 1543
1502 1505 1506 1506 1508 1505 1499 1500 1499 1497 1498 1499 1500 1502 1503 1504 1505 1506 1507 1507 1508 1509 1511 1512 1514 1516 1518 1520 1523 1524 1526 1528 1529 1530 1531 1532 1534 1535 1536 1537 1538 1538 1539 1539
1498 1498 1497 1498 1498 1496 1498 1498 1498 1498 1498 1499 1500 1501 1502 1502 1503 1505 1506 1506 1507 1508 1510 1511 1513 1515 1517 1519 1521 1523 1524 1526 1527 1528 1529 1530 1531 1532 1533 1534 1534 1535 1536 1536
1496 1499 1497 1495 1493 1495 1496 1497 1497 1498 1498 1498 1499 1500 1500 1501 1502 1503 1504 1505 1506 1507 1509 1510 1512 1513 1515 1517 1519 1521 1522 1524 1525 1525 1526 1527 1528 1529 1530 1531 1531 1532 1532 1533
1493 1496 1494 1491 1491 1493 1493 1495 1496 1496 1497 1497 1498 1498 1499 1500 1501 1502 1503 1504 1505 1506 1508 1509 1510 1512 1514 1515 1517 1519 1520 1521 1522 1524 1525 1525 1526 1527 1528 1528 1528 1529 1529 1530
1491 1492 1491 1488 1489 1489 1490 1492 1493 1494 1495 1495 1496 1496 1497 1498 1499 1500 1502 1503 1504 1505 1506 1507 1509 1510 1512 1513 1515 1517 1518 1519 1521 1522 1523 1523 1524 1524 1525 1525 1526 1526 1527 1527